Dewpoint
-9 -6 -8 -11 -12 -11 -10 -8 -7 -10 -11 -10 -8 -8 -9 -10 -11 -10 -9 -6 -4 0 2 2 2 2 2 3 3 2 4 13 15 15 13 11 11 12 12 12 14 13 13 12
-11 -10 -14 -14 -15 -13 -11 -8 -7 -9 -10 -7 -8 -8 -10 -11 -11 -10 -10 -11 -10 -4 -1 1 2 3 3 2 4 3 3 10 14 15 14 9 7 7 6 4 13 14 13 12
-9 -13 -14 -12 -10 -8 -8 -8 -9 -7 -7 -8 -7 -4 -6 -7 -8 -9 -10 -10 -10 -12 -6 -4 -1 2 3 3 4 4 4 7 13 14 14 14 14 13 12 12 14 14 14 13
-11 -12 -11 -9 -8 -8 -5 -8 -7 -6 -6 -2 -6 2 -3 -7 -8 -9 -8 -7 -8 -9 -11 -8 -4 -1 0 2 4 5 5 6 12 14 13 14 14 14 13 10 8 12 14 14
-8 -9 -9 -6 -6 -7 -4 -6 -4 -3 -1 2 1 2 1 -5 -6 -6 -6 -4 2 3 3 3 2 1 0 2 3 5 5 5 9 13 12 13 13 13 13 13 13 14 14 14
-10 -11 -9 -8 -7 -6 -6 -4 -3 -3 -1 5 2 2 3 1 0 -3 -1 1 1 2 3 4 5 5 6 7 7 6 6 5 7 12 10 13 13 14 13 14 14 14 14 14
-9 -11 -10 -8 -4 -6 -5 -1 3 3 6 5 -5 -2 3 3 4 3 1 1 2 1 2 2 3 5 6 7 8 9 7 6 6 8 8 7 10 11 12 12 13 14 14 14
-2 -3 -7 -8 -5 -2 -2 0 5 5 3 1 -3 2 4 3 1 1 2 1 1 1 1 1 1 1 2 4 6 7 9 7 6 7 8 9 10 11 12 12 13 14 14 14
-2 -3 -7 -6 -6 -4 1 3 0 5 2 4 2 6 2 1 1 1 -0 0 -0 -0 -0 -0 1 1 1 2 4 6 9 10 8 8 8 8 10 12 12 13 13 14 14 13
1 -1 -2 -7 -6 -3 0 -1 3 2 4 4 6 4 3 2 2 1 0 -1 -1 -1 -1 -1 -1 -0 0 1 1 3 6 8 10 11 12 12 12 13 12 12 13 13 13 13
2 -0 -3 -7 -1 2 1 1 2 4 3 5 6 3 2 1 1 1 -0 -1 -2 -2 -2 -1 -0 -1 -1 0 0 0 1 4 7 7 9 11 12 13 13 13 13 13 13 14
-5 0 -1 -7 -8 -6 -4 1 3 3 4 6 2 2 1 1 0 -0 -1 -1 -1 -1 -1 -1 -1 -0 -0 -0 -0 -0 0 0 1 1 5 5 7 9 10 11 13 13 14 13
-3 -2 -2 -6 -7 -7 -1 2 2 2 5 5 2 2 1 1 0 -0 -0 -0 -0 -0 -1 -1 -1 -1 -1 -1 -1 -0 -0 0 0 -0 0 1 3 4 5 6 8 11 12 13
-6 -2 -2 -1 -2 -2 2 1 1 0 3 2 3 2 1 1 1 -0 -0 -1 -1 -1 -1 -1 -1 -1 -1 -1 -1 -1 -1 -1 -1 0 1 0 -0 -0 -0 1 3 6 7 9
-5 -1 -4 -5 -7 -5 1 0 -0 1 1 1 1 0 0 0 0 -3 -5 -6 -5 -3 -3 -2 -1 -2 -2 -2 -1 -2 -2 -2 -2 -3 -2 -1 -0 1 0 -1 -2 -0 2 4
-5 -2 -4 -4 -8 -6 0 -2 -2 -2 -0 0 -1 -0 0 -2 -4 -5 -6 -6 -6 -5 -4 -4 -3 -2 -3 -3 -3 -2 -2 -3 -3 -5 -6 -4 -2 -2 -2 -1 -0 -0 -2 -2
-3 -3 -4 -5 -8 -7 -2 1 -1 -2 -2 -2 -1 -0 -0 -2 -5 -5 -6 -6 -6 -6 -5 -5 -4 -4 -2 -3 -3 -3 -3 -3 -6 -4 -9 -7 -9 -7 -4 -5 -4 -4 -1 0
-1 -2 -4 -3 -7 -2 -0 -2 -1 -2 -3 -3 -5 -6 -7 -4 -6 -7 -6 -6 -6 -5 -5 -4 -4 -3 -3 -3 -3 -3 -3 -4 -4 -5 -3 -4 -7 -8 -10 -10 -7 -8 -5 -5
-5 -3 -1 -2 -6 -5 -6 -1 1 -2 -2 -5 -7 -9 -10 -10 -6 -11 -7 -6 -5 -5 -4 -4 -3 -3 -3 -3 -3 -3 -4 -4 -5 -6 -4 -5 -8 -9 -6 -8 -10 -9 -9 -7
-5 -4 -2 -2 -5 -3 -5 -6 -4 0 -2 -6 -8 -9 -9 -10 -11 -9 -7 -6 -5 -5 -4 -5 -5 -5 -5 -4 -4 -4 -4 -5 -5 -8 -7 -7 -6 -8 -5 -7 -9 -8 -9 -9
-5 -3 -2 -2 -2 -5 -8 -7 -7 -4 -2 -6 -7 -9 -9 -9 -7 -6 -6 -7 -6 -6 -6 -5 -6 -6 -5 -4 -4 -4 -4 -5 -6 -6 -7 -7 -7 -7 -8 -7 -7 -8 -9 -10
-3 -2 -4 -5 -5 -5 -8 -9 -4 -3 -4 -7 -7 -8 -8 -8 -7 -7 -7 -7 -7 -7 -7 -6 -6 -6 -5 -5 -5 -4 -4 -5 -5 -5 -6 -7 -8 -7 -7 -8 -8 -7 -7 -8
-4 -4 -3 -4 -4 -8 -6 -5 -5 -5 -5 -6 -6 -7 -8 -7 -7 -7 -7 -6 -6 -7 -7 -7 -6 -6 -5 -5 -5 -5 -4 -5 -5 -5 -5 -6 -7 -7 -7 -6 -7 -7 -6 -5
-8 -5 -3 -1 -8 -8 -8 -6 -6 -5 -5 -6 -7 -7 -7 -7 -7 -7 -6 -6 -6 -7 -7 -7 -6 -6 -6 -5 -5 -5 -5 -5 -5 -5 -7 -6 -6 -7 -5 -7 -7 -6 -6 -6
-8 -6 -8 -7 -9 -9 -9 -8 -6 -5 -4 -6 -6 -7 -7 -7 -7 -6 -6 -6 -6 -6 -6 -6 -6 -6 -5 -6 -5 -5 -5 -5 -5 -5 -5 -6 -8 -7 -6 -6 -5 -5 -5 -5
-9 -9 -7 -6 -9 -7 -8 -7 -5 -4 -6 -6 -6 -6 -6 -5 -5 -5 -6 -6 -6 -6 -6 -6 -6 -6 -6 -6 -6 -5 -5 -5 -5 -6 -8 -8 -8 -8 -7 -7 -7 -7 -7 -6
Wind_Speed
4 8 10 15 14 18 21 23 31 29 28 25 31 36 36 43 41 44 46 47 48 44 37 37 39 37 34 32 33 36 42 41 41 44 47 49 49 47 49 52 45 42 47 48
10 12 7 11 16 20 23 26 28 30 26 23 26 33 39 36 39 42 47 44 46 48 45 47 36 37 39 35 33 34 40 43 42 44 43 52 52 51 47 44 52 47 46 50
10 13 9 13 16 20 20 22 27 28 28 27 28 33 33 36 39 45 46 46 48 51 51 52 49 43 37 39 36 34 37 41 43 42 40 41 41 43 46 46 46 50 48 52
7 7 17 15 16 18 21 19 24 26 22 22 24 22 33 37 34 30 38 35 40 42 45 47 51 50 51 45 38 36 38 39 42 44 39 42 42 47 50 56 55 53 53 52
13 20 16 15 12 19 23 19 21 22 22 21 35 15 31 29 28 28 24 17 14 17 17 18 23 39 42 43 39 37 36 39 42 43 46 45 43 43 46 46 48 48 52 55
17 9 3 9 17 16 18 17 20 23 19 16 28 20 19 17 23 23 20 15 15 16 15 13 9 7 8 14 18 28 33 35 36 42 45 44 45 44 44 41 43 47 51 57
15 9 14 8 23 19 7 15 8 6 4 7 15 17 13 20 22 16 13 19 22 23 22 20 16 11 9 8 4 9 22 30 32 40 44 47 47 48 46 46 47 49 51 53
11 6 15 14 18 14 17 7 7 8 12 20 22 5 7 16 27 28 23 22 22 24 24 23 25 24 22 16 2 4 11 23 29 34 42 44 47 48 51 48 48 47 50 53
7 8 20 20 15 7 9 11 20 7 17 12 3 9 18 19 19 18 18 25 27 27 28 29 35 35 34 36 26 15 9 18 25 22 29 40 42 46 47 48 48 46 46 50
4 9 7 18 6 6 14 12 9 5 6 6 8 9 10 15 16 16 16 22 28 33 39 38 41 32 40 40 42 37 26 16 12 18 20 28 34 38 43 46 44 43 46 48
6 4 14 15 6 11 14 9 6 6 5 4 4 7 11 15 14 14 15 24 27 31 31 40 46 46 44 45 48 46 46 39 30 27 19 17 20 22 33 37 39 38 40 44
5 4 13 14 7 3 14 11 14 6 4 1 9 7 11 11 11 14 21 25 32 32 37 37 36 46 53 54 49 46 48 48 45 43 37 36 27 21 21 20 30 32 38 41
6 3 10 9 1 9 14 22 23 13 3 10 11 6 4 8 14 21 18 23 26 29 29 38 43 39 45 47 47 49 47 44 43 42 42 40 38 34 29 24 19 22 24 30
8 3 4 8 12 13 15 25 26 21 13 18 15 17 17 14 13 17 20 23 25 25 27 28 33 37 33 38 38 36 37 41 41 39 39 40 38 34 34 30 27 20 16 16
5 4 11 12 5 6 20 20 26 24 20 15 15 18 16 14 13 20 23 24 26 28 29 29 29 30 31 32 29 32 29 29 29 34 31 33 32 24 30 31 31 28 20 18
6 5 11 8 10 7 20 16 22 25 23 13 15 14 10 13 19 22 24 25 27 27 26 26 26 26 28 27 26 24 24 25 26 28 27 25 20 23 24 30 21 22 24 23
7 8 8 6 9 2 8 13 15 18 19 17 16 9 9 11 17 22 24 25 25 26 26 25 25 24 23 24 24 22 24 23 27 26 27 22 23 18 17 21 22 16 19 12
5 7 4 6 5 5 1 12 9 15 14 14 13 14 16 9 9 20 22 22 22 22 22 22 22 21 21 20 21 22 23 27 24 26 21 24 24 24 19 19 12 17 12 13
3 5 2 4 5 6 16 9 2 5 13 14 16 15 19 20 9 16 22 21 20 19 18 17 17 18 19 21 19 20 21 21 22 24 19 22 27 30 26 23 22 16 11 8
1 5 4 3 5 5 11 16 5 9 9 17 17 15 18 18 9 11 22 20 19 18 17 17 16 16 17 19 18 17 18 20 22 24 24 23 22 22 20 20 20 16 15 16
6 4 6 5 3 4 10 15 8 3 5 12 14 14 14 11 9 15 16 16 16 16 17 16 17 18 19 18 18 16 17 19 19 21 20 20 20 19 19 19 20 20 18 17
3 4 3 3 3 2 15 7 6 5 5 9 11 11 11 11 12 13 14 16 16 15 15 16 17 18 19 19 19 18 19 17 17 16 17 18 21 22 22 21 21 22 21 21
2 1 3 2 2 4 6 7 6 6 6 6 8 9 9 10 12 14 15 16 18 18 18 18 18 18 18 17 17 17 18 20 20 18 18 20 21 23 23 25 25 24 23 23
4 3 3 2 3 6 6 5 6 5 3 2 5 6 6 8 10 13 15 16 16 17 17 17 17 16 19 19 19 18 17 20 20 19 20 19 20 24 23 27 25 24 24 22
7 3 6 8 8 7 1 9 8 4 3 2 4 5 6 8 11 13 15 16 17 17 16 16 17 17 18 18 17 18 19 20 21 20 20 21 24 24 24 23 24 28 26 22
10 9 6 6 3 7 11 10 6 3 4 3 4 5 6 6 8 10 12 14 16 17 18 17 16 17 19 19 20 19 20 21 22 23 24 27 28 28 28 30 33 32 31 28
Wind_Direction
336 289 280 299 290 291 289 279 276 280 286 284 279 280 278 280 275 274 271 267 266 260 266 256 254 253 249 246 239 230 224 224 216 212 214 216 216 217 218 222 214 214 214 210
298 288 316 307 295 284 280 280 277 282 284 277 279 281 280 280 281 281 280 278 270 262 254 254 256 248 248 244 236 233 227 223 218 213 215 223 223 219 218 223 220 214 216 213
299 294 307 299 295 290 281 284 288 286 294 287 284 276 279 278 276 275 274 278 270 262 252 256 250 245 247 243 237 234 229 223 219 215 214 212 217 218 219 220 213 216 216 218
292 304 308 302 294 288 289 295 293 289 288 283 289 294 287 279 284 279 280 285 272 264 253 246 247 247 243 243 240 236 228 222 218 212 210 208 207 208 216 221 225 224 221 221
315 309 302 306 314 317 293 299 300 293 280 281 277 271 271 285 287 287 299 317 356 342 326 299 259 246 238 238 239 233 224 221 217 215 213 215 215 216 219 219 222 219 223 223
324 315 310 324 323 313 291 298 295 277 265 259 268 271 284 338 342 321 0 27 15 14 8 355 336 316 280 257 228 225 221 220 216 216 219 212 214 212 214 216 215 220 219 221
347 5 6 28 334 329 301 322 298 287 236 266 302 301 30 4 355 5 47 38 32 37 34 28 22 26 19 11 342 229 214 221 222 222 225 225 223 223 221 217 217 216 214 216
346 324 341 328 325 309 302 311 283 301 308 304 304 315 18 29 29 24 34 51 42 39 35 36 38 37 36 41 45 185 196 225 226 227 223 224 224 224 223 220 217 216 214 213
321 293 311 307 334 341 331 324 311 265 272 273 264 53 47 28 35 29 19 42 39 40 34 31 40 38 41 55 68 76 167 196 203 214 230 229 228 224 222 219 217 216 215 215
306 291 295 327 348 352 340 317 323 301 288 312 47 57 15 6 4 5 28 27 29 39 45 34 41 35 45 50 52 67 85 109 156 199 211 221 229 228 221 218 215 217 220 219
287 245 316 334 334 359 340 316 329 256 239 280 29 48 2 12 11 20 20 26 27 33 37 40 45 40 43 46 48 50 57 75 92 94 121 152 188 205 214 219 219 222 219 220
343 297 315 323 51 69 350 312 317 282 250 282 84 60 358 14 12 12 21 18 32 39 42 45 45 43 46 48 46 48 50 59 65 66 82 85 104 133 152 162 195 205 212 217
324 356 329 357 33 331 349 2 351 339 279 38 88 81 359 26 20 13 10 19 27 30 28 36 41 40 44 47 45 46 47 52 55 57 64 66 70 74 81 87 117 165 180 198
312 283 285 322 306 321 345 19 11 24 43 63 71 73 49 39 29 22 29 36 29 32 31 31 32 33 35 40 46 43 44 42 47 51 54 54 57 56 63 64 67 84 105 133
351 289 326 321 319 339 21 34 22 31 36 55 54 51 33 20 14 26 27 27 30 24 25 26 26 25 27 33 33 37 38 42 39 48 52 52 52 49 51 54 52 58 58 64
357 310 324 327 346 134 43 46 48 33 25 55 55 52 5 21 29 22 23 22 22 23 22 20 23 22 23 25 30 30 31 33 39 40 43 45 48 52 52 52 41 52 53 48
332 327 337 347 359 141 38 42 57 57 38 24 28 1 356 17 26 21 14 13 14 11 10 12 14 15 19 18 21 24 25 24 33 33 36 26 34 42 35 52 43 42 41 41
297 316 325 318 313 43 34 40 67 68 47 27 16 5 357 322 5 23 12 7 8 11 12 11 12 17 18 18 16 24 29 25 25 29 22 28 26 27 29 34 17 39 29 18
337 328 325 332 49 137 28 10 32 54 48 21 3 2 359 358 284 25 7 5 4 5 11 14 13 13 13 16 19 16 23 26 20 25 16 11 15 20 17 14 19 4 3 343
43 355 13 1 52 41 360 348 14 236 52 13 4 2 357 2 12 9 356 357 357 359 2 6 9 14 16 15 17 18 14 18 17 16 13 12 16 11 6 357 360 348 350 337
1 352 10 17 24 114 1 347 293 357 1 360 2 360 358 4 353 328 343 357 358 356 355 3 8 13 13 11 11 14 6 7 9 8 7 6 9 8 4 352 347 351 337 328
339 330 11 311 337 29 359 356 30 323 328 359 357 359 350 347 341 342 346 352 357 358 359 3 5 8 7 4 4 3 359 358 355 352 354 357 1 358 359 353 350 346 341 335
258 335 322 282 351 309 317 295 315 309 330 351 346 348 346 343 347 347 349 352 352 355 358 358 360 357 358 357 359 353 350 347 345 346 344 343 348 352 354 354 349 344 342 333
206 201 249 282 188 297 316 312 290 261 279 325 339 342 346 343 344 345 347 348 348 348 349 347 348 348 350 351 350 345 339 341 342 340 339 340 340 344 345 347 344 339 335 324
274 210 264 272 272 321 248 343 326 289 229 303 349 347 338 339 339 340 340 340 341 340 342 342 340 341 339 340 340 338 337 339 340 339 338 336 337 339 337 335 330 333 331 321
227 245 235 270 321 301 319 328 315 258 241 269 324 324 318 315 321 330 332 330 331 332 331 330 330 329 330 332 334 335 337 338 338 335 338 337 337 334 332 331 330 331 329 324
Height
1500 1495 1482 1479 1477 1473 1470 1468 1455 1443 1442 1448 1435 1424 1418 1402 1415 1401 1403 1406 1405 1404 1403 1404 1408 1409 1409 1413 1417 1420 1423 1429 1433 1435 1440 1444 1449 1455 1461 1467 1477 1483 1487 1492
1496 1487 1486 1485 1482 1478 1474 1466 1455 1444 1443 1442 1435 1423 1406 1406 1392 1400 1392 1391 1390 1392 1394 1396 1396 1399 1400 1401 1406 1410 1414 1419 1424 1427 1430 1435 1441 1446 1451 1457 1465 1474 1479 1485
1496 1489 1490 1487 1481 1475 1469 1466 1455 1451 1439 1435 1431 1411 1401 1389 1386 1387 1386 1382 1377 1377 1379 1383 1385 1386 1388 1391 1393 1398 1403 1409 1414 1420 1425 1430 1436 1442 1447 1451 1458 1463 1469 1474
1492 1489 1487 1481 1477 1470 1463 1461 1454 1449 1445 1433 1425 1418 1403 1381 1374 1376 1372 1365 1362 1361 1361 1366 1370 1372 1376 1378 1384 1388 1393 1398 1404 1409 1414 1417 1423 1428 1433 1437 1443 1450 1459 1465
1489 1484 1479 1477 1473 1471 1462 1458 1450 1444 1438 1437 1409 1419 1384 1375 1365 1356 1352 1355 1365 1365 1361 1359 1355 1360 1361 1368 1371 1377 1382 1388 1393 1398 1404 1408 1414 1421 1427 1432 1437 1442 1448 1454
1483 1478 1477 1474 1472 1465 1459 1450 1441 1430 1425 1427 1404 1403 1374 1376 1370 1359 1361 1368 1370 1368 1366 1364 1360 1358 1358 1358 1358 1365 1372 1378 1384 1390 1394 1401 1405 1412 1418 1424 1429 1434 1438 1442
1480 1473 1475 1474 1469 1462 1454 1449 1437 1418 1414 1403 1375 1377 1395 1406 1392 1383 1382 1385 1383 1378 1375 1372 1368 1364 1359 1356 1356 1360 1365 1371 1377 1382 1387 1393 1398 1403 1409 1414 1418 1423 1428 1432
1500 1483 1477 1478 1475 1468 1458 1454 1449 1430 1408 1394 1380 1380 1419 1419 1411 1405 1400 1393 1391 1386 1384 1382 1373 1365 1359 1354 1353 1355 1359 1367 1372 1375 1379 1384 1389 1393 1398 1403 1408 1413 1417 1421
1509 1493 1484 1480 1473 1468 1464 1457 1454 1442 1412 1401 1380 1406 1408 1424 1421 1416 1412 1402 1397 1393 1391 1383 1372 1369 1363 1355 1353 1353 1354 1357 1360 1366 1373 1375 1379 1383 1387 1393 1399 1403 1409 1413
1512 1504 1480 1474 1472 1470 1470 1462 1450 1437 1420 1402 1392 1409 1431 1434 1432 1427 1419 1411 1406 1400 1395 1391 1377 1380 1369 1363 1360 1355 1353 1355 1356 1360 1362 1366 1372 1378 1381 1385 1390 1396 1400 1403
1508 1508 1483 1473 1475 1478 1469 1459 1457 1446 1436 1411 1396 1436 1453 1448 1444 1438 1430 1421 1415 1408 1403 1396 1391 1384 1373 1368 1364 1362 1358 1356 1355 1358 1357 1358 1362 1364 1371 1379 1386 1390 1393 1397
1504 1507 1491 1470 1468 1471 1471 1469 1458 1439 1419 1415 1421 1455 1462 1457 1452 1446 1438 1430 1423 1417 1412 1410 1400 1391 1380 1373 1372 1370 1369 1365 1365 1364 1360 1361 1361 1360 1363 1367 1372 1378 1383 1391
1508 1499 1487 1469 1469 1469 1473 1468 1455 1432 1420 1417 1421 1457 1466 1460 1455 1451 1445 1438 1433 1428 1423 1413 1405 1399 1390 1388 1384 1382 1379 1377 1377 1374 1367 1366 1364 1365 1366 1368 1369 1371 1376 1383
1507 1506 1504 1497 1493 1489 1480 1475 1465 1448 1440 1445 1454 1463 1468 1466 1462 1458 1452 1447 1442 1437 1431 1423 1415 1407 1403 1399 1396 1393 1392 1388 1387 1383 1379 1377 1375 1378 1375 1373 1371 1372 1375 1379
1503 1504 1493 1488 1483 1485 1488 1485 1478 1467 1470 1462 1474 1470 1475 1473 1469 1462 1458 1453 1448 1441 1434 1429 1423 1417 1412 1409 1405 1403 1402 1399 1397 1387 1394 1389 1387 1392 1379 1375 1376 1376 1382 1383
1502 1498 1489 1485 1475 1479 1489 1489 1487 1484 1482 1480 1478 1480 1483 1478 1473 1466 1461 1457 1451 1447 1445 1440 1433 1428 1423 1418 1414 1411 1410 1406 1400 1392 1396 1393 1398 1391 1391 1381 1391 1379 1385 1386
1503 1497 1489 1481 1475 1474 1483 1499 1495 1494 1494 1490 1484 1489 1484 1479 1474 1470 1466 1460 1455 1452 1448 1445 1441 1435 1431 1426 1422 1418 1412 1410 1405 1400 1393 1400 1392 1398 1396 1383 1382 1393 1386 1394
1509 1501 1495 1486 1473 1481 1499 1498 1500 1498 1498 1496 1492 1487 1482 1478 1473 1473 1470 1467 1463 1460 1456 1451 1446 1442 1437 1433 1427 1423 1417 1412 1411 1407 1413 1403 1400 1393 1396 1389 1399 1384 1394 1394
1505 1500 1499 1492 1479 1484 1486 1496 1498 1496 1497 1493 1489 1486 1483 1478 1473 1471 1471 1468 1465 1462 1459 1455 1452 1447 1442 1436 1433 1427 1424 1422 1418 1412 1417 1414 1403 1389 1389 1394 1389 1399 1399 1402
1504 1501 1499 1496 1488 1493 1499 1494 1493 1496 1488 1493 1492 1488 1484 1479 1469 1474 1474 1471 1467 1462 1460 1457 1455 1450 1446 1440 1435 1433 1428 1425 1422 1415 1413 1410 1408 1405 1403 1405 1401 1406 1398 1399
1501 1503 1502 1499 1496 1494 1500 1496 1490 1488 1501 1496 1493 1490 1487 1483 1485 1483 1479 1475 1470 1466 1461 1457 1454 1450 1446 1442 1439 1437 1434 1428 1424 1419 1420 1418 1415 1412 1413 1413 1410 1397 1401 1399
1508 1507 1503 1500 1500 1502 1500 1494 1495 1500 1497 1496 1494 1493 1490 1488 1485 1483 1478 1472 1469 1467 1462 1457 1454 1450 1448 1446 1440 1437 1435 1432 1429 1427 1423 1419 1412 1412 1407 1407 1402 1399 1396 1394
1503 1506 1505 1507 1504 1502 1502 1501 1500 1499 1497 1496 1495 1493 1491 1489 1486 1482 1478 1474 1468 1464 1460 1456 1453 1450 1448 1446 1443 1438 1436 1432 1429 1424 1422 1418 1414 1411 1405 1400 1398 1397 1393 1394
1501 1505 1504 1506 1499 1499 1498 1498 1497 1497 1496 1495 1494 1492 1490 1488 1485 1481 1477 1474 1470 1466 1462 1458 1455 1452 1448 1441 1439 1438 1437 1432 1426 1422 1420 1415 1412 1405 1400 1396 1399 1397 1396 1397
1500 1503 1496 1494 1494 1495 1494 1494 1494 1493 1494 1494 1492 1490 1489 1487 1484 1480 1477 1474 1470 1467 1464 1460 1456 1451 1447 1442 1440 1438 1432 1428 1424 1419 1415 1411 1407 1404 1401 1400 1401 1397 1394 1391
1496 1494 1493 1491 1493 1495 1493 1493 1493 1492 1492 1492 1491 1490 1489 1487 1485 1482 1479 1475 1471 1467 1463 1459 1456 1452 1447 1442 1437 1434 1432 1426 1420 1416 1410 1406 1402 1399 1396 1395 1390 1386 1380 1376